RH
67 55 49 52 49 31 21 24 25 25 26 26 24 22 22 22 23 24 24 25 25 25 23 21 18 16 17 17 19 21 18 12 15 35 37 14 6 13 17 22 21 16 14 13 8 6 10 14 19 21 26 28 28 30 26 38 53 57 66 73 82 89 87 78 72 75 74 75 71 71 77 68 69 69 57 49 39 38 39 38 39 39 41 41 47 56 58 60
40 32 31 31 28 24 22 23 24 25 27 26 24 23 22 21 21 21 22 22 23 22 21 22 21 21 19 17 21 22 24 28 44 59 33 1 9 19 22 27 24 18 13 10 5 5 13 15 19 21 27 31 25 24 20 29 49 56 69 74 75 81 76 71 69 69 67 71 75 75 77 69 67 69 56 52 49 41 39 40 40 43 42 42 51 58 59 61
29 23 23 23 24 24 24 22 22 24 25 26 24 22 21 21 20 20 21 21 21 21 20 20 22 25 22 20 22 24 40 55 59 52 23 5 12 15 22 27 22 19 15 9 4 5 11 13 16 19 26 32 23 20 17 27 48 53 65 76 74 72 71 75 74 74 75 72 75 75 72 68 70 69 57 57 55 43 42 44 44 48 45 45 55 59 60 62
30 25 23 24 25 24 23 21 20 22 23 24 23 22 21 20 19 18 19 20 19 19 19 19 21 25 24 24 23 29 54 62 45 32 25 20 18 15 20 24 20 17 14 9 5 5 9 11 14 18 24 26 19 16 16 25 43 46 54 67 69 67 69 77 80 80 80 74 75 77 66 64 70 65 59 62 56 47 45 44 44 47 45 46 54 59 60 61
33 29 26 26 24 22 21 20 18 19 20 21 22 21 20 19 18 18 17 18 18 18 19 19 20 25 26 26 27 39 57 53 35 27 28 26 22 21 21 23 18 14 13 8 4 6 11 15 17 22 22 20 17 15 14 16 30 42 51 60 64 64 66 74 82 81 81 75 74 77 67 64 66 59 64 65 57 55 45 38 41 41 42 45 48 55 59 60
36 31 28 27 24 22 20 18 16 16 18 19 20 19 19 19 18 18 17 16 17 18 21 20 20 26 27 27 37 51 51 39 29 24 24 23 19 20 20 18 13 13 12 7 9 15 20 21 22 25 19 17 17 15 15 10 21 46 57 60 62 63 68 75 81 82 84 78 73 75 71 67 63 61 69 64 61 65 44 34 39 38 41 42 42 46 52 57
37 33 30 27 25 23 21 18 15 15 15 17 18 18 18 18 17 17 17 17 18 21 26 23 21 27 28 33 51 61 52 35 22 17 18 17 14 14 14 11 10 12 9 9 21 27 26 25 26 24 16 15 14 11 14 7 16 48 64 63 63 64 72 75 77 83 84 80 79 77 71 68 67 66 68 61 64 63 40 33 37 37 40 39 41 42 44 50
37 34 31 28 26 25 23 19 15 13 14 15 17 17 17 17 17 17 18 21 22 25 29 24 24 29 28 40 56 58 53 38 21 16 16 13 9 9 8 7 9 9 5 13 27 30 27 28 26 21 15 14 13 11 12 11 22 51 64 62 63 69 75 76 78 83 82 83 84 77 73 75 78 74 70 69 68 55 35 34 37 36 39 39 41 41 41 43
38 36 33 31 29 26 25 21 15 12 12 14 15 16 17 17 17 19 22 24 25 29 30 24 28 30 34 53 61 50 38 28 20 17 16 13 8 4 5 6 6 5 6 13 23 26 27 26 20 15 13 12 12 12 13 16 25 44 58 59 65 74 79 80 82 83 87 91 84 78 82 88 88 78 72 74 69 57 40 33 37 37 38 39 39 39 40 40
39 37 36 33 31 29 27 23 16 12 12 13 14 15 16 16 18 21 24 25 27 31 29 26 30 32 44 60 56 42 27 19 20 18 14 14 10 5 6 8 4 3 8 13 17 20 24 23 17 12 10 11 11 10 11 16 25 42 58 66 74 81 83 84 83 83 88 93 87 87 92 91 89 79 75 76 68 65 51 33 37 37 37 39 37 38 38 37
41 39 36 35 34 31 28 25 18 12 11 12 13 14 15 17 19 22 25 26 30 33 29 29 32 36 52 60 50 36 22 17 20 17 14 14 14 11 12 13 8 4 8 13 14 16 19 18 15 9 7 11 9 8 9 15 38 58 64 75 82 82 84 84 84 84 86 91 91 92 92 87 88 84 86 82 67 70 57 34 36 36 36 38 35 38 37 36
42 38 35 35 35 32 30 27 20 13 11 11 12 13 15 17 19 22 26 28 33 36 32 32 35 43 60 66 53 30 15 17 19 17 16 13 14 15 15 16 14 11 10 13 15 13 12 11 9 6 6 8 6 10 8 9 40 63 64 79 87 81 81 79 83 87 85 91 90 87 90 88 88 86 89 84 72 78 63 35 36 35 35 37 35 38 37 38
40 37 36 36 35 32 30 27 22 14 11 11 11 13 15 17 18 22 27 31 35 37 36 36 37 49 64 59 39 19 11 16 16 16 17 13 14 14 14 14 12 13 12 12 12 9 8 7 7 6 6 7 6 8 8 6 27 55 65 74 82 82 82 78 81 87 84 91 88 81 91 95 91 84 84 85 82 89 70 38 35 34 33 36 35 38 40 41
36 35 35 36 34 31 29 27 22 15 11 10 11 13 14 16 17 21 28 33 37 39 39 38 39 55 68 50 26 17 14 13 13 15 15 14 15 13 14 12 9 10 9 10 8 7 7 6 6 7 5 7 6 5 9 9 19 51 63 64 78 83 83 83 83 85 84 91 87 81 94 97 92 86 87 91 87 91 77 42 33 34 34 37 37 40 42 42
32 33 33 33 32 29 28 26 22 15 11 9 10 12 13 15 16 19 29 36 40 40 39 44 47 56 67 49 24 16 13 9 11 13 13 14 14 13 12 10 9 9 7 8 7 6 7 6 6 7 7 7 7 6 11 14 20 38 39 49 80 86 84 87 83 84 88 93 89 84 96 99 94 93 93 92 85 86 78 46 33 35 35 38 40 42 42 43
30 29 29 29 29 27 25 24 21 14 10 9 10 12 13 15 16 19 30 38 41 40 42 52 53 53 59 45 21 13 11 9 10 12 13 14 13 12 10 10 10 9 8 8 7 7 6 6 7 8 7 6 8 10 16 25 31 38 43 60 84 87 90 90 81 84 89 91 86 84 96 100 97 96 93 90 86 84 72 49 40 38 36 40 41 41 42 44
29 27 26 25 25 24 23 23 20 13 9 9 10 13 13 15 18 24 35 41 42 44 46 52 54 53 49 33 19 14 13 13 11 13 14 13 12 9 8 10 9 8 9 8 7 8 6 6 8 8 7 7 10 16 25 34 37 50 70 80 81 82 89 89 80 78 82 84 77 78 93 96 93 93 92 90 87 81 66 52 50 44 38 41 42 43 45 47
30 27 24 22 21 20 20 21 19 13 8 9 11 12 14 23 30 34 41 47 49 53 56 57 54 45 34 26 24 16 12 14 12 11 12 12 11 8 8 9 9 9 9 8 9 8 7 6 7 8 9 9 10 18 30 33 37 56 75 77 76 79 81 85 84 74 75 83 79 80 86 86 90 93 92 87 81 79 68 59 59 53 49 48 45 45 46 47
31 28 25 21 18 16 17 20 19 13 9 9 11 12 20 34 39 39 46 53 50 45 42 49 47 30 21 23 23 15 11 12 10 9 9 9 9 9 9 8 9 9 8 9 10 8 8 7 8 9 9 10 9 14 23 24 34 56 67 71 80 84 79 83 89 78 76 87 90 89 83 78 84 85 87 87 79 74 68 63 65 63 63 68 70 67 59 50
31 29 25 20 16 14 15 18 18 14 10 9 10 14 26 34 34 34 42 49 45 32 24 31 37 28 22 20 15 12 11 9 9 9 9 9 9 9 9 9 10 9 8 10 10 9 8 8 11 10 8 10 8 11 15 15 31 49 59 71 80 83 83 85 87 80 78 88 92 93 89 80 79 77 79 84 79 74 69 64 68 70 68 72 78 79 78 66
27 27 25 21 15 12 13 16 17 14 10 8 10 19 27 28 27 26 28 32 30 28 27 27 29 28 25 19 12 9 9 10 10 10 9 9 8 9 10 10 11 11 10 8 8 8 8 9 11 9 8 8 6 9 10 13 32 47 58 76 81 79 82 84 86 83 83 89 88 89 89 82 83 84 79 79 81 78 71 64 65 71 68 68 71 70 82 85
25 26 24 20 15 11 12 15 15 12 10 10 14 23 27 22 21 21 21 24 21 20 25 25 24 26 24 20 13 7 7 11 12 11 9 9 8 9 11 10 11 13 11 8 8 8 9 10 8 7 7 7 6 8 6 13 31 45 60 77 82 83 85 86 86 88 89 87 86 86 84 83 89 92 86 83 85 82 75 67 64 67 66 66 69 67 77 85
25 24 22 21 15 10 11 13 12 12 12 15 19 25 24 18 18 19 21 27 25 19 20 21 20 20 18 15 10 6 9 10 12 12 8 8 9 9 11 11 12 12 10 9 9 10 10 9 7 6 6 6 7 6 7 14 24 40 62 77 81 83 86 87 86 88 88 82 83 86 84 87 88 87 87 83 84 86 84 78 69 68 68 64 62 62 68 73
25 24 23 20 13 11 11 10 14 15 13 16 21 19 16 17 19 20 24 30 29 23 19 18 17 13 11 10 7 8 10 9 11 12 8 9 10 9 11 11 12 13 12 11 9 9 9 6 6 6 6 7 7 9 14 17 18 28 46 66 81 81 81 86 86 88 88 82 81 82 85 89 82 82 87 83 83 86 87 86 78 74 73 65 61 59 59 61
26 25 24 19 15 11 7 12 19 18 13 17 20 15 12 17 17 17 27 34 33 26 18 14 13 9 7 7 8 8 9 9 10 10 9 9 9 10 11 11 12 13 13 11 9 9 8 7 6 7 9 10 10 15 17 16 20 20 22 46 71 76 81 87 81 82 90 88 80 75 82 88 82 81 82 81 85 85 87 87 78 77 75 68 67 62 53 53
28 27 25 23 17 9 8 20 24 17 15 18 17 13 12 18 17 16 32 44 40 28 15 10 11 8 7 8 7 9 11 12 10 8 9 8 7 8 10 12 12 13 12 10 11 11 9 8 7 9 12 12 13 17 14 14 20 16 16 39 61 68 80 85 75 78 90 90 78 73 82 89 85 80 73 74 83 83 86 86 75 74 75 70 69 62 51 49
30 27 26 24 19 15 17 23 23 19 19 19 18 18 17 18 16 17 40 55 41 23 12 10 11 7 8 8 6 11 16 13 8 8 9 7 6 7 10 13 12 12 10 10 14 14 9 9 9 10 13 13 14 14 12 14 16 18 28 48 63 69 76 75 72 81 88 85 80 77 82 90 89 81 68 69 79 82 82 82 79 77 73 70 69 61 50 46
31 28 27 25 22 20 23 28 32 28 22 21 23 24 19 18 18 22 46 54 29 13 11 10 9 7 7 8 6 10 14 11 10 10 8 6 7 8 10 11 11 12 12 12 15 13 9 10 9 9 11 12 14 12 11 12 10 20 41 55 59 63 70 68 69 81 83 83 91 86 81 89 93 85 74 71 76 81 78 74 74 75 72 70 69 62 51 46
32 29 27 25 22 21 28 37 37 27 21 24 26 24 19 20 24 32 54 55 22 7 12 8 8 9 7 9 8 8 10 9 11 12 8 7 8 8 10 11 10 11 10 10 13 12 9 9 8 8 10 11 13 12 11 10 8 14 32 47 50 57 65 61 65 77 76 80 92 86 80 88 92 90 88 84 78 72 70 67 65 67 69 66 68 65 53 46
31 29 26 24 24 28 35 33 23 17 18 23 25 22 20 25 34 44 60 55 23 7 11 9 9 10 8 9 9 8 9 9 10 11 9 9 9 7 9 10 9 11 13 12 12 11 9 10 11 10 10 10 9 9 9 9 8 8 16 28 33 47 58 54 63 73 65 72 82 77 75 77 80 89 93 87 77 62 57 61 62 64 67 64 66 67 56 48
31 27 25 25 27 30 31 23 16 16 14 17 24 22 25 35 44 53 53 38 18 10 11 10 10 10 9 10 10 9 10 9 8 10 11 11 11 9 9 12 12 16 21 18 13 13 11 10 12 10 11 9 5 8 10 7 8 8 16 24 20 33 48 46 52 55 49 60 69 71 76 72 72 81 82 75 67 58 53 56 59 62 65 64 65 67 58 49
30 25 22 24 29 29 24 16 14 15 11 17 24 26 38 48 49 53 44 26 21 16 10 11 11 9 10 10 10 10 10 10 9 11 12 12 13 12 11 16 16 17 25 25 16 15 14 11 10 9 9 9 7 11 12 10 11 9 20 35 32 36 44 44 51 51 49 59 64 71 79 76 75 70 65 67 64 59 56 53 55 58 61 61 61 64 60 52
28 23 20 20 24 26 25 18 9 9 14 21 29 35 46 53 52 49 39 28 25 15 9 12 11 8 10 10 10 10 10 11 10 10 12 12 15 14 11 15 15 14 21 24 17 16 17 13 10 8 9 9 8 11 12 12 14 10 18 33 37 39 38 41 54 51 51 68 74 76 76 78 80 63 53 59 57 54 53 51 54 55 56 56 54 59 61 53
26 21 20 16 13 19 27 23 11 11 17 25 39 46 43 47 52 44 34 29 21 11 9 11 8 8 9 9 10 10 9 10 10 9 12 14 15 16 15 14 13 12 17 22 18 16 19 17 12 9 10 9 8 10 10 10 12 11 16 21 26 38 38 38 51 49 53 74 76 66 68 78 77 60 55 59 55 55 53 49 55 56 56 54 49 57 61 53
25 19 20 17 11 17 21 14 10 14 23 34 48 52 46 48 48 38 30 23 13 9 10 9 8 9 9 9 9 8 9 10 9 10 12 15 16 17 16 14 12 13 17 23 19 16 20 20 13 11 10 8 7 9 8 9 13 13 14 16 18 28 30 29 39 46 57 77 79 67 64 69 67 58 60 64 62 65 62 55 57 60 62 58 53 59 61 54
22 15 23 23 16 20 16 7 10 17 28 43 49 48 47 44 35 29 26 20 13 12 11 10 11 11 12 13 10 8 10 10 12 14 15 16 18 16 14 12 11 11 15 20 18 18 24 20 13 12 11 8 8 8 7 8 15 15 12 15 17 16 18 20 29 38 43 52 60 66 66 62 60 62 64 67 67 71 72 66 61 62 65 63 58 60 61 57
22 21 33 33 21 22 17 6 11 20 32 47 50 49 45 33 23 23 22 19 17 13 11 13 14 12 13 15 13 10 11 12 12 16 18 19 21 19 14 11 10 10 13 16 14 17 23 20 15 15 14 12 9 10 12 11 15 17 12 12 15 15 18 23 27 33 35 34 43 63 73 66 63 68 70 69 69 73 79 78 71 66 67 66 62 60 61 58
33 39 44 35 22 22 18 8 14 26 35 47 55 55 44 27 20 20 17 16 16 13 12 14 13 13 12 13 14 11 12 15 13 17 23 22 21 19 12 11 12 10 10 12 14 18 21 22 22 19 17 17 13 14 21 19 17 18 16 16 17 16 18 22 25 29 33 38 48 65 74 70 70 76 77 71 71 77 82 82 78 71 69 70 67 64 66 65
46 51 43 28 18 20 17 13 22 32 37 47 56 49 34 25 20 17 16 15 16 15 14 12 12 13 12 11 13 11 11 14 14 19 25 22 20 17 11 11 12 11 11 12 15 19 22 23 24 22 19 18 19 23 29 27 23 22 25 29 27 20 15 19 28 31 32 37 46 56 67 74 78 81 82 80 79 82 83 83 84 82 79 77 72 71 75 78
51 42 30 22 19 20 17 18 27 35 40 49 52 39 25 22 19 15 15 14 14 13 12 11 11 13 13 10 11 10 10 13 13 17 22 20 19 17 12 12 12 12 14 14 15 22 27 24 24 28 26 24 27 28 27 29 29 30 36 41 41 35 26 27 33 30 29 38 44 52 68 80 83 83 85 88 87 85 85 84 88 91 88 84 79 76 80 84
65 40 28 23 19 20 20 24 31 37 42 43 38 29 21 20 17 14 14 13 11 10 9 10 10 11 12 11 11 10 9 11 12 15 19 18 19 19 15 13 11 11 16 20 20 22 25 26 32 39 35 31 31 25 22 28 29 33 42 43 45 46 39 42 50 41 36 42 43 48 67 82 85 85 84 86 88 89 89 88 88 90 90 90 89 85 84 85
65 41 32 22 19 23 23 30 35 32 32 30 25 21 19 20 17 13 12 11 9 9 8 9 10 10 11 10 10 9 8 11 13 15 16 16 17 18 14 11 11 12 18 24 21 20 31 38 41 44 38 29 28 24 23 28 28 32 37 36 42 49 46 51 59 53 47 50 51 59 75 83 84 84 83 84 88 90 92 94 91 90 91 93 94 93 90 85
50 39 28 14 17 24 22 33 42 32 24 21 18 15 13 15 13 11 11 11 10 9 8 9 9 9 10 9 9 9 9 11 13 13 14 15 14 13 12 12 13 15 19 23 21 23 37 43 42 54 59 43 29 28 31 31 33 39 40 37 41 46 48 52 55 57 59 60 64 76 84 84 82 82 82 85 89 90 92 94 93 91 92 95 94 93 94 87
58 52 37 20 19 22 24 34 43 40 32 23 16 14 13 13 12 12 13 12 11 10 8 9 8 7 8 8 8 9 10 13 14 11 11 14 13 13 13 12 13 16 19 25 24 20 30 46 54 63 66 52 39 38 38 34 38 46 48 44 43 45 48 48 50 63 68 61 67 82 87 87 84 80 82 85 87 89 91 92 93 92 92 95 95 93 94 92
67 58 48 32 22 22 28 32 32 35 34 27 22 20 17 15 13 14 15 14 11 10 9 10 8 8 8 8 9 9 10 12 12 11 12 12 13 14 13 13 14 15 21 32 33 28 37 59 71 66 55 50 48 46 45 47 48 53 54 49 45 48 52 51 58 73 75 70 79 89 88 86 83 77 79 82 84 89 92 90 91 92 92 94 96 96 97 96
61 55 51 39 30 28 30 29 26 29 32 30 29 24 18 17 15 12 14 15 12 10 10 11 10 9 9 9 11 11 11 11 10 13 15 13 12 12 13 15 14 17 33 41 34 37 51 60 70 77 64 52 52 53 54 57 55 55 57 53 49 50 53 59 67 75 78 78 81 86 87 86 83 77 76 81 88 94 95 93 93 94 94 95 96 96 96 97
67 62 52 44 44 41 37 34 31 31 32 32 32 26 18 17 15 13 13 13 11 11 11 11 10 10 10 11 12 12 13 14 13 14 15 15 15 13 13 16 16 27 45 40 29 47 63 52 51 64 57 46 53 61 58 55 53 54 54 54 58 59 57 61 61 60 69 72 70 79 88 84 80 82 85 92 97 98 97 97 96 96 95 95 96 95 95 96
66 57 47 45 52 52 48 44 38 35 32 30 33 29 20 17 15 14 14 12 11 12 13 14 12 10 11 11 11 14 16 17 20 19 17 17 17 15 15 15 19 33 38 25 23 49 65 55 45 46 45 47 54 58 56 54 54 56 54 53 60 62 60 61 57 55 65 68 69 80 87 81 83 91 94 96 97 97 97 96 94 94 94 94 94 95 96 97
60 60 56 50 51 52 50 43 39 39 35 34 40 36 26 22 18 14 14 14 13 12 12 15 14 11 11 11 12 18 19 18 22 23 18 17 17 20 21 16 17 26 24 17 23 40 56 64 56 42 40 48 52 52 55 55 52 52 53 55 57 58 58 61 58 57 64 69 74 82 86 85 89 96 97 94 92 94 95 92 92 95 95 94 94 95 96 98
69 75 75 68 61 55 49 42 39 41 38 35 38 34 27 24 22 18 15 14 15 15 11 13 14 12 11 12 14 18 20 20 21 19 17 18 19 20 20 17 18 19 19 21 24 29 43 56 55 47 45 52 56 53 52 55 52 49 52 58 59 56 59 66 67 66 73 80 82 84 87 89 90 93 96 92 89 94 96 93 93 96 97 96 96 95 96 98
73 73 75 79 76 63 50 41 37 40 44 38 31 28 25 23 22 22 19 14 13 15 12 11 13 13 12 13 13 13 16 19 19 15 13 15 16 15 14 16 18 17 19 22 20 25 39 48 52 52 49 55 58 48 43 48 49 48 52 57 59 58 63 74 77 74 78 83 83 81 83 88 92 94 94 92 91 96 98 96 94 95 97 97 97 97 98 98
78 77 75 75 76 67 52 43 39 40 44 40 31 28 28 25 24 27 29 24 15 13 15 14 12 14 17 16 13 12 13 14 14 14 12 12 13 13 13 14 14 13 17 19 20 33 47 50 54 55 53 62 63 47 43 50 51 57 61 54 54 60 68 75 76 74 75 80 84 85 85 91 95 95 96 97 96 97 98 98 96 95 96 97 98 99 97 96
Wind_Speed
14 14 15 14 15 16 16 16 16 15 16 16 15 15 15 15 15 15 15 16 16 16 16 15 14 14 14 14 15 18 18 15 11 7 7 8 7 8 5 3 4 5 4 4 6 5 5 6 8 11 6 3 3 2 6 7 3 2 2 2 1 3 3 4 6 5 3 2 3 4 1 1 4 4 2 1 4 11 12 9 10 10 10 14 22 32 31 29
14 15 15 16 16 17 17 17 16 16 16 16 16 15 15 15 15 15 16 17 17 17 16 16 15 14 13 13 14 17 18 15 11 9 9 7 7 10 7 6 6 6 5 6 9 8 4 3 5 6 4 3 3 3 3 6 5 3 2 2 3 4 4 4 7 5 3 3 3 3 2 2 3 3 2 4 3 8 12 10 11 14 13 16 26 33 30 29
14 15 16 17 17 18 18 17 17 16 16 16 16 16 15 15 15 16 16 17 17 17 16 16 14 13 13 13 13 15 15 11 5 6 6 6 10 12 9 7 7 8 8 8 9 8 7 7 7 4 3 4 4 5 4 4 5 4 3 2 5 5 3 3 6 5 4 5 4 3 2 1 3 3 2 3 4 10 14 12 13 15 16 18 22 28 29 27
15 16 17 18 18 18 18 18 17 16 16 17 16 16 16 16 16 16 16 16 17 16 16 15 13 13 12 13 13 13 10 5 2 4 1 4 8 10 11 9 9 9 9 8 7 8 10 11 9 4 4 5 4 5 5 4 5 3 5 5 5 5 4 4 6 5 4 5 5 4 2 2 5 2 2 4 5 6 10 14 16 19 19 19 20 23 25 24
15 17 18 18 18 19 18 18 17 17 17 17 16 16 16 16 16 16 16 16 16 16 16 15 13 12 12 12 11 9 6 3 2 5 3 4 5 7 10 10 9 9 8 7 7 8 10 9 5 3 3 4 3 1 3 6 5 3 3 4 6 6 4 5 6 4 4 4 4 4 3 3 4 2 3 5 4 2 5 12 17 19 19 20 21 22 22 20
16 17 19 19 19 19 19 19 18 18 17 17 16 16 16 16 16 16 16 17 17 17 16 14 12 11 13 11 7 4 2 1 5 6 5 5 4 6 9 10 9 8 8 7 6 5 6 5 2 2 2 2 3 4 5 5 4 2 1 3 7 6 5 5 5 4 4 5 4 4 3 2 3 3 2 4 4 3 5 13 16 17 19 21 20 20 20 18
17 18 19 19 20 20 20 20 20 18 17 17 17 17 17 17 17 17 17 18 17 16 15 13 10 11 13 9 3 1 1 3 6 3 4 4 4 6 7 8 8 8 9 7 5 3 3 3 2 3 3 3 4 5 6 8 4 5 2 4 7 6 7 7 6 5 5 5 4 3 2 2 2 4 2 0 1 1 7 14 15 16 19 20 16 14 17 18
18 18 19 19 20 21 22 22 21 19 18 17 17 17 17 17 18 18 18 18 17 16 15 12 9 10 12 7 1 2 1 4 4 3 1 2 2 6 6 6 8 10 9 8 6 3 1 3 5 3 2 5 4 4 6 7 3 6 5 6 6 4 5 5 5 4 5 4 3 4 3 2 2 2 3 2 4 5 6 15 14 17 17 15 14 14 15 15
18 19 19 20 20 22 22 23 22 20 18 17 17 16 17 17 18 18 18 18 16 14 13 10 8 9 10 5 1 2 2 5 5 2 2 3 1 4 5 6 9 10 8 9 9 4 1 3 5 4 3 5 2 5 7 5 3 3 7 6 5 5 4 5 4 4 4 2 2 5 3 3 3 3 4 2 3 6 4 17 15 17 16 14 14 14 14 12
19 20 20 21 21 22 23 23 22 21 18 17 17 16 16 17 18 18 18 17 14 12 12 8 7 8 7 3 2 2 2 5 6 4 4 4 2 5 6 5 8 10 8 8 10 6 4 5 7 5 5 5 3 6 7 4 4 3 9 8 7 6 4 3 3 3 3 3 3 5 1 3 5 3 2 4 3 6 1 16 16 15 16 14 14 12 12 11
20 21 21 21 22 23 24 24 23 21 19 18 17 16 16 17 17 18 18 15 12 11 10 6 7 7 4 2 3 1 4 6 7 6 3 3 2 4 6 7 7 9 10 7 9 10 9 11 11 5 3 2 4 7 5 4 6 8 12 10 7 6 4 3 3 1 2 2 1 5 1 2 4 1 3 3 5 9 1 15 15 14 14 13 13 11 9 8
21 22 21 22 23 23 24 24 24 23 21 19 17 16 16 17 17 17 16 13 10 10 7 5 5 5 3 2 2 4 3 5 7 6 3 2 4 4 4 6 7 9 11 7 8 11 11 13 9 3 3 1 3 5 3 3 7 8 10 9 3 3 3 3 1 2 3 0 2 5 2 3 3 4 4 3 7 11 3 14 14 13 13 11 11 9 6 8
21 22 22 23 23 23 24 25 25 24 22 20 18 17 16 17 17 16 14 10 9 8 5 4 4 3 3 0 5 5 3 3 5 5 5 5 6 7 8 8 8 9 12 11 11 12 12 14 8 3 3 1 0 3 4 3 7 7 5 7 4 1 2 3 0 3 4 1 4 5 1 5 7 7 1 5 7 9 4 13 13 11 11 9 9 7 6 9
22 22 22 23 23 24 24 25 25 25 23 21 19 18 17 18 17 15 12 8 7 5 3 3 3 1 2 3 7 5 5 4 5 6 7 10 10 9 10 10 9 9 10 12 14 12 12 13 8 3 2 1 2 4 5 4 5 7 3 3 2 2 1 4 1 3 4 2 5 5 1 6 6 5 1 5 2 7 4 12 11 8 9 9 8 7 8 9
23 22 22 23 23 24 24 25 25 25 24 22 20 19 19 19 18 15 10 7 5 2 2 4 1 1 2 6 8 4 4 5 7 9 8 11 12 8 9 13 13 10 8 9 11 11 12 11 6 1 3 2 2 4 5 4 2 5 4 1 2 2 2 4 3 4 3 3 4 3 1 4 3 2 3 6 2 8 5 10 10 8 9 9 8 8 8 8
23 23 23 23 23 24 24 25 25 25 24 22 21 20 20 21 19 14 8 4 3 2 1 3 1 1 1 4 5 4 4 7 9 10 8 12 13 7 8 13 14 12 11 10 10 10 9 5 2 2 2 3 1 1 3 5 4 2 3 2 2 2 2 2 3 4 4 3 3 4 3 3 1 3 4 5 2 8 4 6 5 4 9 10 7 8 8 8
24 24 23 23 23 23 23 24 25 25 23 22 22 21 22 22 16 9 4 1 2 2 1 1 1 1 2 5 5 3 6 8 8 10 11 12 13 7 5 6 8 9 10 10 9 7 4 1 1 1 1 2 1 4 4 3 3 3 3 3 3 2 3 2 3 3 2 4 2 4 2 2 3 7 6 5 2 6 3 4 2 1 7 9 8 9 8 8
25 25 24 24 23 23 23 24 24 24 24 22 22 24 22 16 7 1 4 5 3 1 1 1 1 1 3 5 3 3 7 10 6 8 11 11 10 7 3 2 3 3 2 3 4 3 1 1 0 1 3 2 1 4 3 3 4 3 2 3 2 1 1 3 3 1 2 4 2 1 2 1 5 9 7 4 3 3 2 4 3 4 4 4 6 7 7 10
26 26 26 25 24 23 22 23 23 24 24 21 21 21 14 8 5 6 7 7 3 1 1 2 2 1 4 7 6 4 8 12 7 4 9 9 8 7 4 3 2 1 1 1 2 3 2 1 2 1 3 4 4 5 6 5 4 7 5 4 4 2 1 3 2 1 3 5 4 3 3 4 7 8 7 2 1 1 4 4 4 6 5 4 5 4 1 7
27 27 27 26 25 23 21 22 22 23 23 22 23 17 6 5 5 2 2 3 3 5 6 5 5 4 7 8 4 2 6 9 6 4 8 9 6 5 3 2 1 1 1 3 2 2 3 2 3 4 7 7 7 8 9 6 2 6 5 4 5 4 2 1 1 2 3 5 3 3 3 3 3 4 5 2 3 4 5 4 5 5 5 5 5 2 4 3
29 29 28 27 26 23 21 21 21 22 22 22 20 11 1 3 3 3 4 4 6 8 9 10 10 9 11 13 7 5 4 3 4 4 9 11 6 3 2 1 1 2 4 4 1 0 4 3 7 9 11 11 9 9 9 6 4 6 5 6 4 2 2 1 2 2 1 4 1 2 4 3 4 4 3 2 3 3 2 4 4 5 6 6 5 7 2 7
31 30 30 29 26 23 21 20 21 21 18 17 14 4 3 4 4 6 5 4 9 8 8 11 11 9 14 21 16 5 4 1 4 5 7 10 4 3 2 1 2 3 4 1 2 1 1 4 11 13 11 10 10 9 7 8 8 6 3 6 4 3 2 2 1 2 4 2 2 0 4 1 4 4 2 1 1 1 2 3 5 6 7 6 5 6 7 2
31 32 32 29 27 24 20 20 20 16 14 15 11 6 9 10 10 12 5 1 8 8 6 8 8 6 8 14 11 3 3 2 3 4 8 9 3 3 4 2 4 4 3 2 4 3 2 7 13 13 9 7 9 10 7 7 6 6 6 5 3 5 4 1 1 1 3 1 3 4 3 2 4 3 2 3 1 2 3 3 4 6 7 7 6 6 9 7
32 33 32 30 28 22 20 20 14 9 14 16 13 12 16 12 9 11 5 1 5 6 7 8 7 4 6 8 5 5 2 2 4 5 10 9 3 2 3 3 4 4 4 6 7 7 7 10 10 9 9 9 9 9 4 4 0 3 8 6 5 8 5 2 4 3 3 4 3 6 4 3 3 3 4 4 2 2 3 3 3 3 5 5 5 6 9 9
33 34 33 31 27 22 21 15 5 9 18 14 11 16 21 14 13 14 5 0 4 4 5 6 4 3 6 6 6 5 1 1 3 7 11 10 5 2 1 3 3 4 5 4 5 7 9 11 6 5 5 3 3 3 1 4 2 2 4 8 11 11 6 8 9 5 4 2 2 5 3 3 4 6 7 4 3 4 3 5 6 5 6 6 5 6 8 9
34 34 34 31 26 24 18 5 4 14 16 8 8 17 19 15 19 17 5 3 3 4 2 1 1 2 4 4 4 3 4 3 5 7 10 8 6 3 1 3 1 3 5 5 2 3 4 6 2 3 3 5 4 2 2 2 5 2 4 6 12 11 10 12 11 5 3 2 4 4 4 2 3 5 9 7 6 7 4 6 8 7 6 7 6 6 8 10
34 34 34 30 25 23 13 3 10 14 7 6 12 17 16 15 20 14 3 3 3 2 1 1 0 3 4 4 4 5 3 4 3 4 7 7 3 3 1 3 2 3 4 2 2 1 2 4 5 3 5 6 4 2 4 2 6 2 2 10 15 13 12 13 10 4 3 3 2 1 2 1 2 5 8 9 8 9 7 7 7 7 7 7 7 6 9 13
34 34 35 29 22 18 11 9 13 9 3 9 14 14 14 16 17 8 4 2 1 1 1 2 0 2 3 2 4 4 3 4 1 5 7 8 4 3 1 5 2 5 5 3 2 5 2 2 4 3 4 2 1 4 5 2 4 3 7 13 14 14 14 12 8 4 3 4 2 3 2 1 3 4 3 8 9 9 10 11 10 9 9 8 7 6 9 13
34 35 34 29 21 14 10 10 9 5 7 11 12 13 15 15 10 4 4 2 1 2 1 0 1 2 1 2 2 4 3 2 3 4 2 5 5 2 2 6 4 5 5 2 3 7 4 3 3 1 3 2 4 6 5 1 0 4 8 10 8 9 9 8 6 4 3 2 1 7 6 2 3 3 2 4 7 10 11 11 11 10 10 9 7 6 9 11
33 34 33 28 18 9 7 11 9 3 9 12 13 15 13 9 4 5 3 0 3 3 0 1 1 2 4 3 2 3 3 3 3 1 0 1 1 1 1 2 1 1 4 1 3 6 6 3 2 1 4 5 4 4 4 3 2 1 4 5 5 4 5 4 2 4 3 2 4 9 10 5 2 3 4 5 7 11 11 9 9 10 9 9 7 6 8 10
32 32 32 26 16 6 4 7 4 2 10 13 14 13 7 4 4 4 0 3 3 2 1 1 3 1 6 6 3 3 3 4 3 3 2 2 2 2 2 3 3 3 4 4 4 6 6 4 2 3 4 4 1 2 3 2 3 4 3 3 2 1 2 3 2 2 2 4 5 6 9 4 1 4 5 7 8 8 9 10 11 12 11 10 8 6 7 10
32 31 29 22 13 8 8 6 4 5 11 11 10 7 4 4 2 2 2 3 2 2 3 3 5 4 6 8 5 5 4 3 4 5 5 3 1 2 2 3 2 2 3 3 3 4 5 4 4 3 2 4 4 3 5 6 6 5 4 4 3 2 2 1 2 2 3 5 4 4 8 2 4 5 6 9 10 7 8 10 11 13 13 11 10 8 7 8
33 32 26 17 12 11 11 10 8 8 8 7 6 4 5 4 1 3 3 3 2 4 3 3 6 6 6 7 6 7 5 3 5 6 4 3 2 3 3 5 5 3 2 4 1 3 5 5 1 2 2 1 5 3 1 3 4 3 1 2 3 2 2 1 3 2 2 4 4 4 7 2 4 4 4 7 11 10 9 9 9 12 13 13 12 10 8 8
34 30 24 16 13 12 11 9 7 5 4 5 4 4 4 1 3 3 2 4 4 3 1 2 5 5 4 4 4 5 4 3 5 6 4 3 1 3 3 4 6 5 2 0 1 2 3 4 3 2 2 1 3 4 5 3 1 1 3 4 3 3 3 2 3 2 2 3 3 2 2 3 2 3 3 3 3 3 5 6 8 8 10 11 10 10 9 9
33 29 21 15 11 8 5 4 6 4 0 3 5 4 2 3 3 2 3 4 3 3 4 3 1 1 3 3 3 4 3 2 3 4 3 3 2 2 2 2 3 5 3 2 1 0 3 2 5 3 2 4 3 4 4 5 1 3 1 4 1 4 5 3 4 4 3 2 0 0 2 3 3 2 3 4 6 6 2 3 7 7 8 9 9 8 9 9
34 28 16 9 8 5 1 7 11 8 3 4 5 1 3 4 3 2 3 3 4 6 6 6 4 2 3 4 3 1 3 1 1 2 1 1 1 1 1 3 1 2 4 3 1 1 3 3 6 6 5 1 3 4 2 5 1 2 2 0 4 4 6 3 3 1 4 2 2 2 2 3 2 2 4 5 7 7 6 1 5 8 8 9 9 9 8 9
34 24 11 8 6 1 3 9 14 9 4 6 4 2 4 4 3 2 3 5 7 8 3 3 2 1 3 4 3 2 2 2 2 2 1 1 1 1 1 1 1 1 3 4 1 1 3 2 5 6 7 5 4 3 5 6 4 2 2 4 4 0 3 3 1 2 2 1 3 2 3 2 0 1 4 6 6 5 6 5 1 6 8 9 9 9 8 8
27 17 10 8 2 7 8 12 14 8 5 5 1 3 3 3 2 3 6 6 8 8 2 1 2 1 2 2 3 3 0 2 1 2 1 1 1 2 1 1 2 3 2 2 3 0 4 1 5 5 6 5 6 8 6 7 6 5 0 3 2 1 2 2 1 1 1 1 3 3 1 1 1 1 4 6 5 4 5 5 2 3 7 8 8 7 6 5
15 7 6 3 4 9 12 15 11 5 5 3 1 3 2 3 6 7 8 6 6 8 5 2 1 1 2 0 2 4 1 2 2 3 2 1 1 1 1 1 3 6 5 6 4 1 3 3 4 5 5 4 5 6 4 6 5 5 4 4 3 1 2 2 1 2 1 2 3 2 2 2 2 2 5 5 5 5 5 5 3 2 3 4 7 7 7 6
5 2 4 3 7 12 15 13 5 5 3 1 3 3 3 4 8 9 9 8 6 5 3 2 0 1 3 2 2 3 1 1 3 4 2 1 1 1 1 2 3 4 7 9 5 1 3 4 2 6 6 4 2 2 0 2 3 4 6 5 4 2 2 2 1 1 2 1 1 1 1 3 4 2 3 5 5 5 4 4 4 5 5 3 4 4 5 6
4 2 2 3 13 18 15 7 2 3 3 2 2 3 4 4 7 10 11 11 7 4 3 3 2 2 3 3 3 2 1 2 1 3 1 1 3 1 2 1 3 3 5 7 5 2 1 2 1 3 4 3 2 3 1 2 3 4 3 1 1 1 2 2 3 3 1 1 2 2 1 4 4 1 3 3 3 4 4 4 4 5 5 4 4 3 1 4
2 1 3 2 10 14 10 4 2 1 2 3 3 4 5 4 7 9 10 10 6 3 1 2 3 3 3 3 2 1 2 2 2 2 1 3 4 3 4 4 5 6 5 3 1 1 1 3 3 1 2 3 5 2 2 4 6 6 4 1 1 1 4 4 1 3 1 2 3 0 1 3 5 1 2 1 1 2 3 3 4 5 4 4 4 4 4 2
1 4 8 4 7 10 3 2 3 2 2 4 4 6 5 4 6 8 8 8 6 3 2 1 2 2 2 3 2 1 2 1 0 1 2 2 2 3 5 6 6 6 5 2 1 1 2 3 3 2 4 5 6 4 4 5 6 6 3 2 1 1 1 4 3 2 1 2 2 2 2 3 5 3 1 2 2 3 3 4 4 4 4 4 5 4 6 3
2 5 7 6 6 9 2 1 3 3 3 4 5 6 5 5 7 8 9 9 5 2 0 2 2 2 3 3 1 1 1 1 1 1 2 3 3 4 5 8 8 4 3 3 2 1 1 2 3 3 4 6 7 6 5 4 3 3 1 3 1 2 3 0 1 2 2 1 1 3 1 4 4 4 4 3 4 4 5 5 5 5 4 4 4 4 6 4
4 2 4 8 4 6 4 3 3 2 4 4 6 7 6 6 6 7 9 9 6 3 1 2 2 1 3 2 1 2 2 3 1 2 1 0 0 1 1 5 7 4 2 5 6 4 2 3 3 4 1 2 2 3 3 3 3 2 2 3 2 2 4 2 1 3 1 2 1 4 3 5 5 5 4 3 4 5 6 6 6 6 5 5 4 4 5 5
3 1 3 6 3 1 2 2 0 1 4 5 6 6 5 6 6 6 8 9 9 6 4 3 1 2 2 3 4 3 2 3 2 1 3 3 3 2 4 7 6 4 5 7 6 4 3 2 3 5 6 4 5 6 5 2 0 3 3 4 3 3 3 1 2 2 3 2 1 3 5 3 5 6 3 4 5 5 5 6 6 6 6 6 5 4 5 4
1 2 2 3 4 3 3 4 4 4 5 5 4 5 6 7 6 6 5 6 7 3 2 1 0 2 2 2 3 2 3 4 2 1 2 2 3 2 6 9 7 8 8 7 5 5 4 2 2 5 5 6 7 7 5 3 2 3 3 4 4 4 4 2 1 2 3 4 1 5 5 3 5 4 3 4 4 4 5 5 5 5 5 5 5 5 6 5
1 2 2 4 2 1 3 4 6 7 8 7 3 5 8 9 8 6 4 5 6 2 2 1 2 1 4 3 2 2 2 4 3 1 1 1 2 2 2 2 3 6 8 4 3 5 5 1 4 4 3 5 6 6 5 5 3 3 3 4 5 5 4 1 3 4 3 4 4 6 6 6 4 2 4 4 5 5 5 5 5 5 5 6 7 8 8 7
2 2 3 5 2 2 3 6 7 7 8 7 4 5 6 8 9 7 4 4 6 4 1 1 3 5 6 4 3 2 2 1 2 0 1 1 1 1 1 2 2 1 4 3 1 3 5 1 5 4 1 3 5 5 5 5 3 3 4 6 6 5 5 3 4 3 3 4 3 3 5 5 2 2 2 3 5 5 5 5 6 6 6 7 8 8 7 7
2 2 3 4 3 3 4 5 5 5 6 5 4 5 5 6 8 8 5 3 3 5 2 4 6 7 6 4 2 2 5 6 4 3 3 2 3 2 1 1 2 3 3 3 2 2 4 2 4 4 2 4 5 5 6 6 5 4 5 5 5 5 3 3 3 2 3 1 2 2 4 3 2 1 3 4 4 5 7 7 6 6 5 6 7 8 8 7
4 5 4 3 3 4 3 3 3 4 4 3 3 4 7 8 9 12 10 6 5 4 3 5 8 6 4 3 4 5 5 8 8 6 6 7 4 2 1 2 3 1 3 2 1 1 3 2 1 4 3 4 5 5 7 6 4 4 6 6 5 3 1 1 2 1 2 1 2 1 3 4 3 0 3 4 5 7 7 5 4 3 4 4 6 7 8 8
7 6 4 1 3 3 3 3 3 3 3 3 4 7 9 10 11 12 9 7 4 2 0 4 5 3 2 4 7 7 6 9 8 7 7 6 6 6 4 2 3 3 2 1 2 2 4 4 2 3 3 4 6 6 5 1 3 3 5 4 2 2 5 4 2 2 1 2 1 2 4 4 2 1 3 4 4 5 5 3 1 0 1 3 4 6 6 6
Wind_Direction
356 355 353 353 352 353 354 355 355 353 352 350 348 348 346 346 345 349 351 347 345 344 347 349 353 356 354 350 343 340 335 328 320 300 261 258 242 198 202 266 273 256 220 235 261 251 247 242 245 245 244 236 215 225 195 171 132 137 124 107 179 184 196 191 176 180 164 183 246 268 234 163 294 315 326 58 127 164 161 141 131 116 118 129 134 142 146 147
354 356 355 356 355 353 353 352 353 351 349 346 345 345 343 344 345 347 347 343 343 344 347 347 351 354 349 345 341 337 332 326 317 287 260 237 209 203 222 260 254 252 237 238 253 239 223 246 251 243 212 208 217 204 186 159 151 165 136 151 217 205 200 186 164 165 153 168 209 243 221 170 259 298 350 15 37 148 139 130 128 119 120 121 129 139 144 147
356 359 360 360 356 351 350 350 351 349 346 345 343 343 342 343 344 344 343 341 342 344 345 345 350 349 343 341 337 333 328 328 316 275 258 205 206 218 228 243 239 247 251 247 254 236 222 251 272 274 217 224 222 208 203 160 164 167 128 188 236 203 175 178 158 160 179 162 155 213 247 222 265 304 25 38 73 125 133 139 136 130 134 130 132 140 145 147
359 3 2 359 354 350 350 349 350 347 346 345 344 343 340 340 341 341 341 340 342 343 342 345 350 345 340 338 334 329 328 343 305 265 240 189 206 218 226 235 239 244 248 246 249 236 241 266 280 273 225 240 236 207 208 181 177 174 164 198 214 163 140 190 175 166 175 151 145 167 166 260 278 295 66 60 87 130 143 148 146 143 143 138 138 143 147 148
1 3 2 358 353 351 351 350 349 347 346 344 342 340 338 338 338 339 340 339 342 342 340 344 347 343 342 338 330 324 340 44 270 270 246 224 215 219 229 234 241 241 235 234 238 240 256 267 270 265 244 249 260 254 225 200 175 173 196 173 159 145 145 194 179 163 151 131 125 126 156 223 289 316 95 83 102 181 165 147 147 144 144 144 144 147 149 152
1 2 360 355 351 351 351 352 350 348 346 342 340 338 337 337 337 339 339 341 343 341 342 345 343 343 345 340 329 317 5 119 276 272 237 241 240 228 230 234 236 231 224 219 229 253 268 259 245 261 274 280 275 271 255 239 185 161 326 127 146 143 141 172 171 160 119 105 128 139 184 199 310 302 105 123 158 219 175 145 143 140 141 145 146 149 153 160
0 1 357 353 351 352 353 353 351 348 344 340 339 337 336 337 339 341 339 342 345 343 345 346 343 345 347 347 333 342 83 246 268 247 232 257 246 230 226 228 216 209 212 202 211 245 276 289 285 258 279 298 276 260 270 281 235 156 139 163 154 142 148 163 162 158 126 120 158 154 132 130 242 267 356 275 222 271 163 145 140 139 139 144 149 157 160 167
358 358 355 352 351 352 353 352 350 347 343 339 338 336 337 339 341 340 340 343 345 347 348 349 350 349 350 354 350 17 322 237 222 176 271 322 241 224 212 199 190 197 199 195 207 221 307 294 265 250 277 270 264 280 295 304 272 137 146 176 152 127 136 131 125 133 123 123 137 98 97 179 227 264 311 320 8 343 163 145 140 141 142 150 157 166 169 175
355 354 352 352 352 353 352 351 350 347 342 338 336 336 338 341 341 340 339 340 345 349 350 352 353 353 354 350 80 31 263 205 169 141 21 33 89 180 181 175 182 190 189 207 223 235 276 248 247 238 251 267 314 330 315 336 324 140 144 151 119 90 72 66 73 76 86 69 72 81 51 308 329 300 289 50 57 328 170 147 145 147 151 159 165 174 176 180
351 349 349 351 351 351 350 349 348 345 341 336 335 336 340 341 340 338 336 337 343 348 349 352 352 358 1 356 79 43 246 188 152 121 64 35 65 138 154 166 177 187 194 217 228 227 222 236 271 273 261 273 14 339 317 11 11 96 105 92 82 83 51 51 77 67 82 34 49 101 99 308 341 295 271 23 46 344 168 153 152 154 158 165 173 179 176 176
348 347 348 350 350 348 348 348 346 345 340 335 334 335 338 338 337 335 333 335 341 345 347 345 351 359 4 52 85 217 222 188 166 137 90 3 303 175 164 170 175 193 206 225 241 239 241 257 273 279 259 275 358 321 307 59 71 104 103 81 67 82 47 27 83 84 100 29 55 113 120 298 345 260 154 7 15 359 293 160 157 163 163 171 175 174 175 165
346 345 348 349 347 346 346 345 345 344 339 335 332 332 334 335 334 331 330 334 338 340 338 337 358 6 11 73 183 229 222 195 182 158 161 287 277 246 213 201 203 214 216 219 249 257 269 278 292 317 265 295 357 307 296 59 98 119 107 102 104 97 49 341 110 154 121 121 215 110 23 277 251 209 156 42 22 355 300 162 163 173 165 171 169 164 164 136
345 346 348 347 345 345 345 344 344 342 338 333 329 328 330 331 330 327 330 334 333 335 332 341 355 4 28 255 243 256 285 245 189 176 206 243 261 260 259 236 226 241 237 233 256 277 292 299 314 310 272 32 311 268 307 355 125 130 92 116 158 98 2 313 278 133 109 170 204 125 331 253 234 236 223 43 27 345 269 169 173 176 163 168 161 151 136 124
348 348 348 346 344 344 344 342 342 340 336 331 326 324 324 327 326 321 328 332 330 340 328 338 344 43 86 261 278 292 279 254 208 219 231 235 245 258 256 231 221 240 242 249 268 283 294 304 319 300 269 125 228 295 327 332 126 132 106 109 129 114 268 301 288 136 106 223 203 127 218 245 255 275 32 74 36 310 246 180 182 170 159 161 149 133 128 125
352 349 348 346 344 344 342 340 339 337 334 328 323 321 321 324 319 315 324 323 319 331 320 339 313 141 28 288 297 315 261 238 220 229 235 236 240 252 247 228 222 225 221 243 268 277 284 304 339 326 285 321 334 328 324 331 45 124 140 248 334 130 215 305 289 172 145 220 195 132 240 255 280 339 80 113 178 297 278 181 180 168 154 149 141 128 127 128
353 350 349 346 344 343 341 338 337 336 331 325 321 319 320 318 313 312 315 303 281 256 342 25 89 136 28 290 304 320 249 226 223 223 227 238 237 244 254 235 226 223 222 234 250 265 280 305 348 206 264 330 21 10 350 1 352 22 116 189 238 134 169 296 294 222 182 167 197 215 237 285 266 131 130 129 155 302 303 153 167 183 156 141 137 134 130 135
353 351 350 347 344 342 339 337 336 333 328 324 322 321 322 318 310 308 300 212 209 235 179 51 1 38 264 277 300 290 230 218 231 233 226 231 232 251 282 236 228 232 230 236 241 252 285 324 251 241 312 307 161 100 48 352 301 327 56 147 191 145 152 212 275 257 180 117 181 220 208 283 191 146 147 140 156 295 337 94 23 310 155 144 138 141 136 138
352 351 350 347 344 341 339 337 335 332 326 323 325 326 327 329 331 53 126 137 141 183 158 298 339 45 270 269 268 237 211 201 213 226 218 216 222 251 290 225 261 292 267 265 247 230 308 335 145 14 326 291 174 112 125 222 213 184 147 139 160 112 138 200 222 275 84 81 53 105 79 70 130 135 150 159 194 263 9 61 32 48 100 128 129 134 137 140
352 351 349 347 344 341 339 336 334 330 325 323 330 332 334 356 44 101 123 130 114 343 282 248 176 166 284 267 256 245 199 185 180 196 210 215 217 231 250 245 267 340 79 18 266 226 174 355 10 355 279 255 208 188 190 210 178 163 163 140 148 150 209 208 231 290 111 87 25 30 62 84 113 131 143 140 225 296 19 46 69 63 61 52 65 39 36 147
353 350 348 346 343 341 339 336 332 329 327 326 335 344 352 8 27 63 113 160 200 234 251 238 196 231 283 278 262 193 179 185 191 198 212 221 206 197 237 280 341 350 188 171 221 242 135 154 256 228 235 236 224 215 211 230 176 145 144 134 153 163 189 220 225 238 128 88 354 354 50 58 70 98 107 68 7 10 27 74 90 84 96 90 97 87 321 293
355 351 348 345 343 341 338 335 330 328 328 327 336 354 4 325 356 329 319 284 246 227 233 240 222 227 257 268 261 168 155 199 229 240 218 212 174 142 242 219 89 291 246 196 187 346 109 169 236 230 228 233 233 226 220 222 181 160 152 135 148 180 176 179 175 225 28 75 291 353 58 35 9 47 70 50 36 17 44 124 124 120 125 112 139 164 140 318
356 353 348 344 342 341 337 333 330 327 329 332 339 356 245 292 326 325 325 301 291 263 239 249 240 234 247 260 262 211 126 185 268 288 211 193 155 146 225 190 177 245 256 158 81 330 147 221 243 237 230 234 241 238 229 214 186 172 143 125 155 192 124 33 1 353 11 82 191 88 86 10 333 30 35 336 98 173 226 184 170 157 150 140 157 169 135 262
356 353 350 345 341 340 337 332 329 331 342 341 329 302 306 316 320 328 339 235 292 282 254 251 243 244 242 252 255 184 120 194 226 250 198 175 159 182 173 187 227 261 274 186 166 176 199 238 242 239 238 244 255 255 231 207 188 165 154 136 169 179 150 253 255 21 12 58 153 135 93 326 309 354 324 273 196 177 251 247 198 166 164 161 160 161 150 192
353 353 351 345 340 340 336 330 330 345 351 335 311 320 341 340 325 336 358 196 286 276 250 240 235 243 224 223 206 154 172 210 170 204 197 171 156 180 168 196 226 257 252 209 187 182 216 242 237 231 239 236 250 264 217 150 97 187 167 154 168 179 174 142 145 122 28 18 95 115 71 321 262 239 255 252 185 181 230 246 240 195 181 175 161 157 165 196
351 351 351 346 340 337 332 329 337 353 341 322 304 334 351 354 343 350 15 45 300 282 262 242 228 218 195 183 178 169 161 277 199 195 189 178 175 161 196 220 210 257 279 261 203 192 231 252 240 216 225 217 237 273 198 123 51 310 201 176 170 166 138 112 127 120 65 5 237 139 104 281 239 213 223 224 201 212 203 197 218 215 197 192 178 174 179 195
348 348 349 347 340 334 335 336 337 338 331 308 312 335 345 351 346 348 27 63 315 274 266 230 182 178 177 160 170 112 46 303 244 200 188 194 200 160 183 283 281 263 287 289 235 182 248 275 255 184 110 60 38 6 280 124 95 328 275 165 147 135 126 137 144 133 117 195 218 150 128 255 263 224 215 207 215 227 209 199 213 210 204 199 190 190 183 185
346 346 347 346 340 337 337 308 321 331 322 309 330 337 342 348 343 342 42 52 321 260 210 264 27 159 184 182 156 96 58 256 268 244 203 191 191 113 152 268 326 283 279 9 13 289 291 349 5 35 76 59 30 326 277 93 96 278 241 127 131 139 151 159 148 129 169 154 81 76 129 149 272 251 210 187 202 228 223 219 222 213 213 205 195 197 183 180
344 344 344 343 340 334 319 302 317 327 325 329 338 340 338 340 340 351 88 74 301 239 229 247 123 168 194 165 151 145 200 201 198 271 219 178 173 82 142 237 235 265 273 65 1 274 260 345 334 4 67 70 256 266 279 46 82 223 169 141 149 160 162 158 143 131 163 114 72 252 214 143 261 276 189 170 193 223 226 224 222 213 215 210 197 197 187 179
342 342 341 339 338 328 308 301 304 315 342 345 345 336 331 335 347 54 86 73 165 225 292 70 129 206 205 87 176 211 216 177 195 256 224 171 196 134 178 225 201 258 280 131 214 266 261 230 251 93 102 199 234 258 278 350 261 211 171 160 157 156 150 142 141 135 118 88 204 217 194 164 263 270 126 152 200 221 220 220 218 211 210 207 197 195 190 181
342 342 339 337 335 324 304 299 284 306 353 349 338 329 331 342 30 74 36 32 189 235 341 58 255 177 140 135 255 232 193 212 226 237 45 198 252 72 204 231 111 345 319 335 246 264 271 265 251 174 172 191 215 245 238 208 227 196 154 154 130 124 130 120 100 92 94 301 245 201 188 176 287 259 178 174 209 214 209 209 209 206 207 203 193 188 187 181
340 341 337 333 327 301 283 294 267 336 344 336 329 332 351 19 65 86 177 234 232 252 117 238 256 172 152 167 229 237 187 226 217 147 209 249 35 23 316 351 30 29 355 337 305 285 294 301 264 231 194 157 99 319 299 339 21 47 75 104 88 34 90 90 11 37 141 262 268 195 177 167 273 258 219 217 228 215 200 202 199 196 200 201 191 184 186 180
339 339 334 327 314 272 251 270 275 303 318 326 334 350 53 49 28 141 233 282 282 206 192 218 224 217 184 176 208 225 188 225 210 169 190 196 141 202 212 196 156 40 335 283 291 311 307 270 230 228 211 128 94 7 335 351 14 36 55 67 59 9 23 65 278 258 204 252 273 159 144 152 258 244 229 223 231 225 202 202 198 192 193 195 191 183 182 176
337 338 334 322 305 283 272 281 286 284 302 333 358 33 81 73 283 227 251 298 257 212 203 200 204 206 183 175 218 221 189 217 217 191 178 147 180 233 229 211 179 123 241 230 296 352 334 310 344 62 311 87 103 102 337 330 356 21 78 115 100 91 66 299 265 274 249 269 298 126 141 198 280 264 246 230 230 222 204 200 196 192 190 191 191 180 175 175
336 337 335 319 305 299 289 281 267 258 303 352 34 62 74 111 238 255 270 263 256 252 262 218 210 207 193 192 213 193 175 231 209 177 166 120 163 253 279 252 201 166 187 128 47 45 28 341 12 59 258 204 124 170 165 161 271 264 179 149 144 155 144 205 221 207 234 255 335 43 150 205 221 247 273 286 264 215 196 199 192 191 190 190 191 175 169 174
337 337 333 318 310 315 301 230 211 207 274 39 61 75 119 212 244 267 258 260 293 315 324 324 237 206 282 271 226 181 147 216 202 149 157 139 152 254 317 311 210 170 129 75 277 45 71 288 282 307 250 150 168 229 156 110 29 276 132 97 157 192 159 185 204 181 169 145 39 244 230 228 197 250 322 33 43 41 44 195 184 185 186 187 193 179 170 173
337 339 336 307 300 322 307 176 171 166 136 75 65 98 198 219 232 224 245 284 317 313 336 356 9 28 317 294 266 259 98 132 187 100 117 160 154 251 353 349 311 134 125 122 215 336 64 290 289 346 4 94 217 247 127 93 151 279 10 100 228 192 144 175 246 208 118 120 253 206 215 295 334 332 341 37 50 33 23 27 188 188 176 179 196 189 173 174
337 340 329 292 286 231 167 162 156 150 104 81 96 211 228 240 231 240 294 309 307 303 354 25 331 11 342 319 319 319 87 60 26 77 55 328 305 284 52 335 332 112 183 148 116 183 117 309 305 32 23 327 329 27 45 48 70 73 321 272 261 39 101 126 244 343 64 163 257 206 183 250 84 257 319 18 35 26 18 12 179 179 169 180 201 194 175 171
333 331 313 297 228 157 163 157 151 139 80 70 110 244 240 245 255 273 278 290 301 298 316 137 251 31 37 346 326 312 132 108 82 110 107 352 285 249 160 265 359 4 296 108 75 11 99 34 300 25 31 332 5 40 25 6 46 94 188 299 11 20 325 17 132 217 6 237 280 325 299 230 172 265 335 1 7 11 8 7 46 162 178 182 193 184 152 133
332 333 317 307 148 156 162 156 146 103 64 71 222 251 244 256 272 273 276 295 297 283 279 229 205 13 8 353 301 300 296 156 169 140 127 150 222 238 131 65 7 8 23 78 98 266 74 86 280 328 357 339 16 41 12 332 356 50 46 14 22 179 238 284 170 163 173 230 260 325 339 313 256 297 351 356 350 7 359 346 352 283 235 194 191 177 141 119
347 356 301 264 157 156 155 150 119 63 83 162 205 241 286 289 281 282 290 297 276 240 233 217 178 351 310 311 304 266 268 248 180 135 106 168 152 333 12 74 49 34 49 66 79 73 55 71 280 309 341 8 20 30 13 318 350 32 42 23 345 325 312 308 333 50 128 197 273 244 258 280 266 284 18 11 352 359 358 345 330 304 297 281 240 202 150 136
342 0 284 164 147 153 147 133 61 91 147 242 219 239 278 276 275 287 292 289 272 212 186 190 181 199 225 269 303 275 316 343 83 101 84 202 143 122 278 174 126 98 65 50 53 71 68 86 76 324 351 5 282 259 219 150 122 104 86 58 297 332 49 44 341 329 77 95 288 250 237 273 275 336 50 24 344 352 8 2 337 316 307 307 308 307 230 158
338 349 268 141 152 161 134 106 260 172 168 240 222 238 267 264 271 285 290 291 287 265 238 183 182 205 212 217 251 292 12 16 28 75 152 193 154 160 217 183 134 114 103 80 62 156 132 101 78 346 291 265 269 287 71 111 113 97 78 31 254 93 94 108 254 291 1 7 302 304 66 278 277 307 87 73 3 19 24 23 7 345 326 323 321 318 319 198
31 291 278 283 191 186 110 34 278 307 234 240 242 246 255 259 271 282 286 290 287 280 323 296 210 215 227 216 202 335 15 31 322 156 164 176 176 198 187 147 113 98 102 100 307 344 62 75 56 330 297 301 307 333 47 85 90 73 31 346 12 351 176 158 176 206 72 5 348 60 27 282 279 307 1 75 65 55 35 38 31 358 336 332 322 320 331 305
326 277 277 302 216 194 183 248 246 292 278 273 280 270 269 260 257 271 283 286 277 254 312 270 241 210 236 239 187 194 179 128 228 235 160 161 187 208 174 134 117 104 120 162 174 118 78 92 76 43 347 340 344 348 357 12 41 66 291 301 345 323 311 299 107 63 58 331 105 108 253 263 274 321 354 32 48 46 32 32 28 1 341 334 333 348 349 346
315 255 260 304 265 190 198 202 188 257 286 304 294 286 291 280 260 264 277 282 265 225 182 258 257 191 248 267 40 235 189 132 184 305 324 145 200 255 175 107 101 97 144 163 144 114 117 139 113 102 87 338 330 308 297 302 338 3 291 310 343 349 336 321 88 73 97 261 105 121 199 266 291 310 332 13 34 35 24 20 16 0 346 343 351 13 10 15
346 326 271 311 329 154 250 274 45 303 300 317 303 285 276 273 278 276 277 284 268 230 187 224 271 44 320 338 23 331 331 63 78 18 17 6 350 10 80 86 98 128 154 149 126 89 84 96 106 133 155 183 201 226 233 194 341 318 319 331 329 319 331 32 83 92 173 179 63 176 198 252 292 293 322 17 34 34 23 19 13 360 355 358 2 17 23 30
31 312 316 341 332 342 352 349 8 354 314 313 303 285 278 275 288 292 281 284 276 242 150 235 34 50 305 331 26 320 325 18 36 92 81 37 329 354 102 117 146 159 151 147 131 99 85 70 126 147 179 205 198 213 223 168 172 250 283 313 299 291 320 33 83 228 174 112 311 239 194 199 263 290 6 27 31 32 25 21 15 6 2 2 12 25 25 27
271 274 357 16 324 328 8 328 323 323 310 307 292 276 280 275 272 277 286 297 300 330 70 333 314 286 244 209 169 239 325 5 354 5 83 66 352 345 60 115 161 154 145 148 143 116 103 145 189 170 220 231 204 209 211 182 200 238 240 264 274 282 301 301 232 243 165 132 229 232 195 206 256 352 36 26 25 33 34 28 23 27 28 24 31 40 35 23
314 299 345 9 337 276 289 287 297 308 305 308 294 267 281 281 270 267 272 302 309 301 183 214 261 267 260 226 165 170 210 274 321 329 213 271 20 39 23 357 338 151 130 104 23 84 93 174 210 175 201 267 229 217 204 191 224 264 251 250 251 258 270 258 250 255 127 139 209 193 186 219 278 37 56 33 33 44 47 36 28 28 34 42 45 46 51 50
6 321 330 350 316 278 274 285 307 314 306 306 280 264 285 294 296 302 287 246 282 295 270 219 228 243 261 244 157 176 204 184 172 173 152 71 36 46 100 173 292 328 30 72 27 36 87 191 219 148 80 306 262 213 199 197 214 251 273 274 261 258 284 322 311 327 92 85 317 132 171 241 306 49 75 53 46 54 50 38 30 15 6 37 58 54 49 58
336 303 314 326 289 287 292 297 328 327 304 280 260 286 304 309 327 332 307 253 218 221 243 251 242 245 283 266 225 233 200 156 159 172 140 113 122 148 174 183 159 26 0 50 99 74 100 142 239 90 82 288 257 210 214 214 210 264 289 297 291 267 175 89 287 268 118 40 338 89 185 249 279 263 83 59 49 60 58 45 35 8 344 12 58 67 58 56
348 322 325 316 262 295 322 319 324 308 272 268 310 323 321 320 337 348 328 297 273 202 213 315 277 253 305 270 241 232 183 152 164 174 146 131 151 159 161 172 136 130 155 127 120 139 124 129 150 109 108 274 258 211 211 184 47 308 266 247 253 179 145 146 238 281 100 116 123 179 213 235 270 25 79 68 58 67 73 65 42 332 358 28 58 66 67 75